210  
ASUS45 KGGW 290015  
RWRGGW  
HOURLY REGIONAL WEATHER ROUNDUP FOR NORTHEAST MONTANA  
NATIONAL WEATHER SERVICE GLASGOW MONTANA  
500 PM MST MON NOV 28 2022  
 
NOTE: "FAIR" INDICATES FEW OR NO CLOUDS BELOW 12,000 FEET WITH NO  
SIGNIFICANT WEATHER AND/OR S TO VISISBILITY.  
 
NORTHEAST MONTANA  
 
 
CITY SKY/WX TMP DP RH WIND PRES REMARKS
 
GLASGOW LGT SNOW 16 9 74 NW25G41 29.75R WCI -3  
6HR MIN TEMP: 16; 6HR MAX TEMP: 20; 6HR PCP: TRACE;  
 
WOLF POINT FLURRIES 16 9 74 W29G39 29.73R WCI -4  
JORDAN N/A 17 8 67 NW21G30 29.77R  
SIDNEY PTCLDY 17 8 67 W29G38 29.68S WCI -2  
GLENDIVE PTCLDY 17 9 70 W23G30 29.72R WCI -1  
MALTA N/A 16 8 71 W20G29 N/A WCI -1  
 
FORT PECK REPORTS  
 
 
CITY SKY/WX TMP DP RH WIND PRES REMARKS
 
FORT PECK N/A 16 11 80 W33G43 N/A WCI -5  
THE PINES N/A 16 5 62 W14G24 N/A  
 
SOUTHEAST MONTANA  
 
 
CITY SKY/WX TMP DP RH WIND PRES REMARKS
 
BILLINGS PTCLDY 22 10 60 NE10 29.75R  
MILES CITY CLEAR 19 9 65 NW18 29.76R  
BAKER CLOUDY 19 11 70 W15 29.71R  
LIVINGSTON CLEAR 13 3 64 W10 29.70R WCI 0  
 
CENTRAL MONTANA  
 
 
CITY SKY/WX TMP DP RH WIND PRES REMARKS
 
HAVRE CLOUDY 14 5 67 NW21 29.89R WCI -4  
LEWISTOWN CLOUDY 10 3 73 W12 29.79R WCI -5  
GREAT FALLS CLOUDY 10 3 73 NW7 29.88R  
CUT BANK CLOUDY 7 1 76 NW13 29.86R WCI -9  
HELENA CLOUDY 15 4 61 NW10 29.81R  
BUTTE CLEAR 13 5 70 S15 29.63R WCI -3  
BOZEMAN CLEAR 14 4 64 NW8 29.71R  
 
WESTERN MONTANA  
 
 
CITY SKY/WX TMP DP RH WIND PRES REMARKS
 
MISSOULA MOCLDY 27 15 61 SE13 29.68S  
KALISPELL NOT AVBL  
 
NORTH DAKOTA  
 
 
CITY SKY/WX TMP DP RH WIND PRES REMARKS
 
WILLISTON FLURRIES 14 8 77 W25G43 29.59R WCI -5  
DICKINSON MOCLDY 18 9 68 W16 29.62R  
MINOT CLOUDY 21 10 62 SW23G37 29.53R  
BISMARCK CLOUDY 24 12 60 W18G25 29.67R  
 
SOUTHERN SASKATCHEWAN  
 
 
CITY SKY/WX TMP DP RH WIND PRES REMARKS
 
REGINA LGT SNOW 18 14 86 NW22G29 29.50R VSB 3/4  
ESTEVAN LGT SNOW 18 14 86 W26G38 29.48S WCI -1  
SWIFT CURRENT LGT SNOW 9 7 92 NW24G38 29.65R VSB 1 WCI -12  
 
 
 
CLICK HERE TO GO TO PREVIOUS BULLETINS.

The Nexlab MT Page Main Text Page